Dades meteomassalio
Diari Summary for Noviembre 25, 2017 Units:  Metric    English   Both
« Previous Day
Next Day »
Diari Semanal Mensual Anual Personalitzat
  Maxima: Minima: Mijana:
Temperatura: 16.7 °C 3.3 °C 9.5 °C
Rosada: 9.5 °C -2.0 °C 3.2 °C
Humitat: 77 % 55 % 65 %
Velocitat del vent: 53.1 km/h 0.0 km/h 22.3 km/h
Racha vent: 53.1 km/h - -
Vent:- - NW
Pressio: 1028.0 hPa 1019.5 hPa -
Pluja: 0.0 mm    
Historical Graphs
 
 
Tabular Data for Noviembre 25, 2017
Time Temperature Dew Point Pressure Wind Wind Speed Wind Gust Humidity Rainfall Rate (Hourly) solar Conditions
00:02 5.6 °C 1.4 °C 1021.2 hPa Calm     75 % 0.0 mm 0.0 W/m2 CLR
00:07 5.6 °C 1.4 °C 1021.2 hPa Calm     75 % 0.0 mm 0.0 W/m2 CLR
00:12 5.6 °C 1.7 °C 1021.2 hPa Calm     76 % 0.0 mm 0.0 W/m2 CLR
00:17 5.6 °C 1.7 °C 1021.2 hPa Calm     76 % 0.0 mm 0.0 W/m2 CLR
00:22 5.6 °C 1.7 °C 1021.2 hPa Calm     76 % 0.0 mm 0.0 W/m2 CLR
00:23 5.6 °C 1.7 °C 1021.2 hPa Calm     76 % 0.0 mm 0.0 W/m2 CLR
00:28 5.6 °C 1.1 °C 1020.9 hPa Calm     73 % 0.0 mm 0.0 W/m2 CLR
00:33 5.6 °C 1.3 °C 1020.9 hPa Calm     74 % 0.0 mm 0.0 W/m2 CLR
00:38 5.6 °C 1.3 °C 1020.9 hPa Calm     74 % 0.0 mm 0.0 W/m2 CLR
00:43 5.0 °C 0.9 °C 1020.9 hPa Calm     75 % 0.0 mm 0.0 W/m2 CLR
00:48 5.0 °C 0.9 °C 1020.9 hPa Calm     75 % 0.0 mm 0.0 W/m2 CLR
00:53 5.0 °C 0.9 °C 1020.9 hPa Calm     75 % 0.0 mm 0.0 W/m2 CLR
00:58 5.0 °C 0.9 °C 1020.9 hPa Calm     75 % 0.0 mm 0.0 W/m2 CLR
01:03 5.0 °C 0.9 °C 1020.9 hPa Calm     75 % 0.0 mm 0.0 W/m2 CLR
01:08 5.0 °C 1.1 °C 1020.9 hPa Calm     76 % 0.0 mm 0.0 W/m2 CLR
01:13 5.0 °C 1.3 °C 1020.9 hPa Calm     77 % 0.0 mm 0.0 W/m2 CLR
01:18 5.0 °C 1.1 °C 1020.9 hPa Calm     76 % 0.0 mm 0.0 W/m2 CLR
01:23 5.0 °C 1.1 °C 1020.5 hPa Calm     76 % 0.0 mm 0.0 W/m2 CLR
01:28 5.0 °C 1.1 °C 1020.5 hPa Calm     76 % 0.0 mm 0.0 W/m2 CLR
01:33 5.0 °C 1.1 °C 1020.5 hPa Calm     76 % 0.0 mm 0.0 W/m2 CLR
01:38 5.0 °C 1.1 °C 1020.5 hPa Calm     76 % 0.0 mm 0.0 W/m2 CLR
01:43 5.0 °C 1.1 °C 1020.5 hPa Calm     76 % 0.0 mm 0.0 W/m2 CLR
01:48 4.4 °C 0.4 °C 1020.5 hPa Calm     75 % 0.0 mm 0.0 W/m2 CLR
01:53 5.0 °C 0.9 °C 1020.5 hPa Calm     75 % 0.0 mm 0.0 W/m2 CLR
01:58 4.4 °C 0.2 °C 1020.5 hPa Calm     74 % 0.0 mm 0.0 W/m2 CLR
02:03 4.4 °C 0.0 °C 1020.5 hPa Calm     73 % 0.0 mm 0.0 W/m2 CLR
02:08 4.4 °C -0.2 °C 1020.2 hPa Calm     72 % 0.0 mm 0.0 W/m2 CLR
02:13 4.4 °C -0.2 °C 1020.2 hPa Calm     72 % 0.0 mm 0.0 W/m2 CLR
02:18 4.4 °C -0.2 °C 1020.5 hPa Calm     72 % 0.0 mm 0.0 W/m2 CLR
02:23 4.4 °C -0.2 °C 1020.2 hPa Calm     72 % 0.0 mm 0.0 W/m2 CLR
02:28 5.0 °C 0.2 °C 1020.2 hPa Calm     71 % 0.0 mm 0.0 W/m2 CLR
02:33 5.0 °C 0.0 °C 1020.2 hPa Calm     70 % 0.0 mm 0.0 W/m2 CLR
02:38 4.4 °C -0.3 °C 1020.2 hPa Calm     71 % 0.0 mm 0.0 W/m2 CLR
02:43 4.4 °C 0.0 °C 1020.2 hPa Calm     73 % 0.0 mm 0.0 W/m2 CLR
02:48 3.9 °C -0.3 °C 1020.2 hPa Calm     74 % 0.0 mm 0.0 W/m2 CLR
02:53 4.4 °C 0.4 °C 1020.2 hPa Calm     75 % 0.0 mm 0.0 W/m2 CLR
02:58 4.4 °C 0.4 °C 1020.2 hPa Calm     75 % 0.0 mm 0.0 W/m2 CLR
03:03 4.4 °C 0.4 °C 1020.2 hPa Calm     75 % 0.0 mm 0.0 W/m2 CLR
03:08 4.4 °C 0.6 °C 1019.9 hPa Calm     76 % 0.0 mm 0.0 W/m2 CLR
03:13 4.4 °C 0.4 °C 1020.2 hPa Calm     75 % 0.0 mm 0.0 W/m2 CLR
03:18 3.9 °C -0.3 °C 1019.9 hPa Calm     74 % 0.0 mm 0.0 W/m2 CLR
03:23 4.4 °C 0.4 °C 1019.9 hPa Calm     75 % 0.0 mm 0.0 W/m2 CLR
03:28 3.9 °C -0.3 °C 1019.9 hPa Calm     74 % 0.0 mm 0.0 W/m2 CLR
03:33 3.9 °C -0.2 °C 1019.9 hPa Calm     75 % 0.0 mm 0.0 W/m2 CLR
03:38 4.4 °C 0.4 °C 1019.9 hPa Calm     75 % 0.0 mm 0.0 W/m2 CLR
03:48 4.4 °C -0.2 °C 1019.9 hPa Calm     72 % 0.0 mm 0.0 W/m2 CLR
03:53 4.4 °C -0.3 °C 1019.9 hPa Calm     71 % 0.0 mm 0.0 W/m2 CLR
03:58 5.0 °C -0.4 °C 1019.9 hPa Calm     68 % 0.0 mm 0.0 W/m2 CLR
04:03 5.0 °C -0.6 °C 1019.9 hPa Calm     67 % 0.0 mm 0.0 W/m2 CLR
04:08 4.4 °C -1.2 °C 1019.9 hPa Calm     67 % 0.0 mm 0.0 W/m2 CLR
04:14 4.4 °C -1.2 °C 1019.9 hPa Calm     67 % 0.0 mm 0.0 W/m2 CLR
04:19 3.9 °C -1.5 °C 1019.9 hPa Calm     68 % 0.0 mm 0.0 W/m2 CLR
04:21 3.9 °C -1.5 °C 1019.9 hPa Calm     68 % 0.0 mm 0.0 W/m2 CLR
04:23 4.4 °C -0.9 °C 1019.9 hPa Calm     68 % 0.0 mm 0.0 W/m2 CLR
04:25 4.4 °C -0.9 °C 1019.9 hPa Calm     68 % 0.0 mm 0.0 W/m2 CLR
04:26 4.4 °C -0.9 °C 1019.9 hPa Calm     68 % 0.0 mm 0.0 W/m2 CLR
04:31 4.4 °C -0.9 °C 1019.9 hPa Calm     68 % 0.0 mm 0.0 W/m2 CLR
04:36 4.4 °C -1.2 °C 1019.9 hPa Calm     67 % 0.0 mm 0.0 W/m2 CLR
04:41 3.9 °C -1.7 °C 1019.9 hPa Calm     67 % 0.0 mm 0.0 W/m2 CLR
04:43 3.9 °C -1.7 °C 1019.9 hPa Calm     67 % 0.0 mm 0.0 W/m2 CLR
04:48 3.9 °C -1.5 °C 1019.9 hPa Calm     68 % 0.0 mm 0.0 W/m2 CLR
04:53 3.9 °C -1.5 °C 1019.9 hPa Calm     68 % 0.0 mm 0.0 W/m2 CLR
05:03 4.4 °C -0.9 °C 1019.5 hPa Calm     68 % 0.0 mm 0.0 W/m2 CLR
05:08 4.4 °C -0.9 °C 1019.5 hPa Calm     68 % 0.0 mm 0.0 W/m2 CLR
05:13 4.4 °C -1.2 °C 1019.5 hPa Calm     67 % 0.0 mm 0.0 W/m2 CLR
05:18 3.9 °C -1.3 °C 1019.5 hPa Calm     69 % 0.0 mm 0.0 W/m2 CLR
05:23 3.9 °C -1.1 °C 1019.5 hPa Calm     70 % 0.0 mm 0.0 W/m2 CLR
05:33 3.9 °C -0.9 °C 1019.5 hPa Calm     71 % 0.0 mm 0.0 W/m2 CLR
05:38 4.4 °C -0.3 °C 1019.5 hPa Calm     71 % 0.0 mm 0.0 W/m2 CLR
05:43 3.9 °C -1.1 °C 1019.5 hPa Calm     70 % 0.0 mm 0.0 W/m2 CLR
05:48 3.9 °C -1.3 °C 1019.5 hPa Calm     69 % 0.0 mm 0.0 W/m2 CLR
05:53 3.9 °C -1.3 °C 1019.5 hPa Calm     69 % 0.0 mm 0.0 W/m2 CLR
05:58 3.9 °C -1.1 °C 1019.5 hPa Calm     70 % 0.0 mm 0.0 W/m2 CLR
06:03 4.4 °C -0.8 °C 1019.5 hPa Calm     69 % 0.0 mm 0.0 W/m2 CLR
06:08 4.4 °C -0.8 °C 1019.5 hPa Calm     69 % 0.0 mm 0.0 W/m2 CLR
06:13 3.9 °C -1.3 °C 1019.5 hPa Calm     69 % 0.0 mm 0.0 W/m2 CLR
06:18 3.9 °C -1.1 °C 1019.5 hPa Calm     70 % 0.0 mm 0.0 W/m2 CLR
06:23 3.9 °C -1.3 °C 1019.5 hPa Calm     69 % 0.0 mm 0.0 W/m2 CLR
06:28 3.9 °C -1.3 °C 1019.5 hPa Calm     69 % 0.0 mm 0.0 W/m2 CLR
06:33 3.9 °C -1.3 °C 1019.9 hPa Calm     69 % 0.0 mm 0.0 W/m2 CLR
06:38 4.4 °C -0.8 °C 1019.9 hPa Calm     69 % 0.0 mm 0.0 W/m2 CLR
06:43 4.4 °C -0.8 °C 1019.9 hPa Calm     69 % 0.0 mm 0.0 W/m2 CLR
06:48 4.4 °C -0.9 °C 1019.5 hPa Calm     68 % 0.0 mm 0.0 W/m2 CLR
06:53 4.4 °C -0.9 °C 1019.9 hPa Calm     68 % 0.0 mm 0.0 W/m2 CLR
06:58 4.4 °C -0.9 °C 1019.5 hPa Calm     68 % 0.0 mm 0.0 W/m2 CLR
07:03 4.4 °C -0.9 °C 1019.5 hPa Calm     68 % 0.0 mm 0.0 W/m2 CLR
07:08 4.4 °C -0.8 °C 1019.5 hPa Calm     69 % 0.0 mm 0.0 W/m2 CLR
07:13 4.4 °C -0.6 °C 1019.5 hPa Calm     70 % 0.0 mm 0.0 W/m2 CLR
07:18 4.4 °C -0.6 °C 1019.9 hPa Calm     70 % 0.0 mm 0.0 W/m2 CLR
07:23 4.4 °C -0.6 °C 1019.9 hPa Calm     70 % 0.0 mm 0.0 W/m2 CLR
07:28 3.9 °C -1.3 °C 1019.9 hPa Calm     69 % 0.0 mm 0.0 W/m2 CLR
07:33 3.9 °C -1.5 °C 1019.9 hPa Calm     68 % 0.0 mm 0.0 W/m2 CLR
07:38 3.9 °C -1.5 °C 1019.9 hPa Calm     68 % 0.0 mm 0.0 W/m2 CLR
07:43 3.9 °C -1.5 °C 1019.9 hPa Calm     68 % 0.0 mm 0.0 W/m2 CLR
07:48 3.3 °C -2.0 °C 1019.9 hPa Calm     68 % 0.0 mm 0.0 W/m2 OVC
07:53 3.3 °C -2.0 °C 1020.2 hPa Calm     68 % 0.0 mm 0.0 W/m2 OVC
07:58 3.3 °C -1.8 °C 1020.2 hPa Calm     69 % 0.0 mm 0.0 W/m2 OVC
08:03 3.9 °C -1.3 °C 1020.5 hPa North 14.8 km/h 14.8 km/h 69 % 0.0 mm 0.0 W/m2 OVC
08:09 4.4 °C 0.0 °C 1020.5 hPa NNW 27.8 km/h 27.8 km/h 73 % 0.0 mm 0.0 W/m2 OVC
08:14 4.4 °C -0.3 °C 1020.5 hPa North 27.8 km/h 27.8 km/h 71 % 0.0 mm 5.0 W/m2 OVC
08:19 5.6 °C 0.3 °C 1020.9 hPa NNW 25.9 km/h 25.9 km/h 69 % 0.0 mm 5.0 W/m2 OVC
08:24 8.3 °C 2.8 °C 1020.9 hPa WNW 25.9 km/h 25.9 km/h 68 % 0.0 mm 7.0 W/m2 BKN
08:29 10.0 °C 4.6 °C 1020.9 hPa NW 18.5 km/h 18.5 km/h 69 % 0.0 mm 11.0 W/m2 BKN
08:34 10.6 °C 5.5 °C 1020.9 hPa NNW 20.9 km/h 20.9 km/h 71 % 0.0 mm 12.0 W/m2 BKN
08:39 11.1 °C 6.4 °C 1020.9 hPa NW 18.5 km/h 18.5 km/h 73 % 0.0 mm 14.0 W/m2 BKN
08:44 11.1 °C 6.7 °C 1021.2 hPa NW 18.5 km/h 18.5 km/h 74 % 0.0 mm 16.0 W/m2 BKN
08:49 11.1 °C 6.8 °C 1021.2 hPa NNW 17.7 km/h 17.7 km/h 75 % 0.0 mm 18.0 W/m2 BKN
08:54 11.1 °C 7.1 °C 1021.2 hPa NW 18.5 km/h 18.5 km/h 76 % 0.0 mm 19.0 W/m2 BKN
08:59 11.1 °C 7.2 °C 1021.6 hPa NW 9.3 km/h 9.3 km/h 77 % 0.0 mm 19.0 W/m2 BKN
09:04 11.1 °C 7.2 °C 1021.6 hPa NW 16.7 km/h 16.7 km/h 77 % 0.0 mm 19.0 W/m2 BKN
09:09 11.1 °C 7.2 °C 1021.6 hPa NW 14.8 km/h 14.8 km/h 77 % 0.0 mm 26.0 W/m2 BKN
09:14 11.1 °C 7.2 °C 1021.6 hPa WNW 14.8 km/h 14.8 km/h 77 % 0.0 mm 47.0 W/m2 BKN
09:19 11.1 °C 7.2 °C 1021.6 hPa NW 22.2 km/h 22.2 km/h 77 % 0.0 mm 67.0 W/m2 SCT
09:24 11.7 °C 7.6 °C 1021.9 hPa NW 20.4 km/h 20.4 km/h 76 % 0.0 mm 105.0 W/m2 FEW
09:29 12.2 °C 7.9 °C 1021.9 hPa WNW 18.5 km/h 18.5 km/h 75 % 0.0 mm 165.0 W/m2 CLR
09:34 12.8 °C 8.4 °C 1022.2 hPa NW 22.2 km/h 22.2 km/h 75 % 0.0 mm 207.0 W/m2 CLR
09:39 12.8 °C 8.3 °C 1022.2 hPa NNW 18.5 km/h 18.5 km/h 74 % 0.0 mm 192.0 W/m2 CLR
09:44 13.3 °C 8.6 °C 1022.2 hPa NNW 16.7 km/h 16.7 km/h 73 % 0.0 mm 262.0 W/m2 CLR
09:49 13.9 °C 8.9 °C 1022.2 hPa NW 22.2 km/h 22.2 km/h 72 % 0.0 mm 323.0 W/m2 CLR
09:51 13.9 °C 8.9 °C 1022.2 hPa NNW 18.5 km/h 18.5 km/h 72 % 0.0 mm 318.0 W/m2 CLR
09:56 14.4 °C 9.2 °C 1022.2 hPa NW 22.2 km/h 22.2 km/h 71 % 0.0 mm 311.0 W/m2 CLR
10:01 14.4 °C 9.1 °C 1022.2 hPa NNW 27.8 km/h 27.8 km/h 70 % 0.0 mm 118.0 W/m2 CLR
10:06 13.9 °C 8.7 °C 1022.2 hPa NNW 29.6 km/h 29.6 km/h 71 % 0.0 mm 93.0 W/m2 CLR
10:11 13.9 °C 8.9 °C 1022.2 hPa NNW 27.8 km/h 27.8 km/h 72 % 0.0 mm 155.0 W/m2 CLR
10:16 13.9 °C 8.9 °C 1022.2 hPa NW 33.3 km/h 33.3 km/h 72 % 0.0 mm 200.0 W/m2 CLR
10:21 13.9 °C 8.7 °C 1022.2 hPa NW 31.5 km/h 31.5 km/h 71 % 0.0 mm 348.0 W/m2 CLR
10:26 14.4 °C 9.1 °C 1022.2 hPa North 24.1 km/h 24.1 km/h 70 % 0.0 mm 246.0 W/m2 CLR
10:31 14.4 °C 9.1 °C 1022.6 hPa NNW 18.5 km/h 18.5 km/h 70 % 0.0 mm 209.0 W/m2 CLR
10:36 14.4 °C 8.8 °C 1022.6 hPa NNW 27.4 km/h 27.4 km/h 69 % 0.0 mm 232.0 W/m2 CLR
10:41 14.4 °C 8.8 °C 1022.6 hPa NNW 24.1 km/h 24.1 km/h 69 % 0.0 mm 288.0 W/m2 CLR
10:46 15.0 °C 9.1 °C 1022.6 hPa NNW 27.8 km/h 27.8 km/h 68 % 0.0 mm 352.0 W/m2 CLR
10:51 15.0 °C 8.9 °C 1022.6 hPa NNW 42.6 km/h 42.6 km/h 67 % 0.0 mm 309.0 W/m2 CLR
10:56 15.0 °C 9.1 °C 1022.6 hPa NW 31.5 km/h 31.5 km/h 68 % 0.0 mm 503.0 W/m2 CLR
11:01 15.6 °C 9.2 °C 1022.6 hPa NNW 35.2 km/h 35.2 km/h 66 % 0.0 mm 515.0 W/m2 CLR
11:06 15.0 °C 8.7 °C 1022.6 hPa NW 37.0 km/h 37.0 km/h 66 % 0.0 mm 490.0 W/m2 CLR
11:11 15.0 °C 8.7 °C 1022.6 hPa North 42.6 km/h 42.6 km/h 66 % 0.0 mm 439.0 W/m2 CLR
11:16 15.6 °C 9.2 °C 1022.6 hPa North 45.1 km/h 45.1 km/h 66 % 0.0 mm 605.0 W/m2 CLR
11:22 15.6 °C 9.0 °C 1022.6 hPa NNW 42.6 km/h 42.6 km/h 65 % 0.0 mm 619.0 W/m2 CLR
11:30 16.1 °C 9.5 °C 1022.2 hPa NW 42.6 km/h 42.6 km/h 65 % 0.0 mm 564.0 W/m2 CLR
11:35 16.1 °C 9.3 °C 1022.2 hPa NW 37.0 km/h 37.0 km/h 64 % 0.0 mm 510.0 W/m2 CLR
11:40 16.1 °C 9.1 °C 1022.2 hPa NW 53.1 km/h 53.1 km/h 63 % 0.0 mm 536.0 W/m2 CLR
11:45 16.1 °C 8.8 °C 1022.2 hPa NNW 31.5 km/h 31.5 km/h 62 % 0.0 mm 478.0 W/m2 CLR
11:50 16.1 °C 8.6 °C 1022.2 hPa NW 40.7 km/h 40.7 km/h 61 % 0.0 mm 578.0 W/m2 CLR
11:55 16.7 °C 8.6 °C 1022.2 hPa NNW 33.3 km/h 33.3 km/h 59 % 0.0 mm 577.0 W/m2 CLR
12:00 16.7 °C 8.3 °C 1022.2 hPa NW 40.7 km/h 40.7 km/h 58 % 0.0 mm 473.0 W/m2 CLR
12:05 16.1 °C 8.3 °C 1022.2 hPa NNW 48.1 km/h 48.1 km/h 60 % 0.0 mm 260.0 W/m2 CLR
12:10 16.1 °C 8.6 °C 1021.9 hPa NW 43.4 km/h 43.4 km/h 61 % 0.0 mm 510.0 W/m2 CLR
12:15 16.1 °C 8.6 °C 1021.9 hPa NNW 42.6 km/h 42.6 km/h 61 % 0.0 mm 496.0 W/m2 CLR
12:20 16.1 °C 8.6 °C 1021.9 hPa NW 40.2 km/h 40.2 km/h 61 % 0.0 mm 388.0 W/m2 CLR
12:25 16.1 °C 8.1 °C 1021.9 hPa NNW 46.3 km/h 46.3 km/h 59 % 0.0 mm 469.0 W/m2 CLR
12:30 16.1 °C 8.1 °C 1021.9 hPa NW 42.6 km/h 42.6 km/h 59 % 0.0 mm 468.0 W/m2 CLR
12:35 16.1 °C 8.1 °C 1021.9 hPa NW 40.7 km/h 40.7 km/h 59 % 0.0 mm 468.0 W/m2 CLR
12:40 16.1 °C 7.8 °C 1021.9 hPa NNW 44.4 km/h 44.4 km/h 58 % 0.0 mm 462.0 W/m2 CLR
12:45 15.6 °C 7.3 °C 1021.6 hPa NNW 37.0 km/h 37.0 km/h 58 % 0.0 mm 468.0 W/m2 CLR
12:50 16.1 °C 7.8 °C 1021.6 hPa NW 50.0 km/h 50.0 km/h 58 % 0.0 mm 492.0 W/m2 CLR
12:55 16.1 °C 8.1 °C 1021.9 hPa NNW 44.4 km/h 44.4 km/h 59 % 0.0 mm 480.0 W/m2 CLR
13:00 16.1 °C 7.8 °C 1021.6 hPa NW 40.2 km/h 40.2 km/h 58 % 0.0 mm 487.0 W/m2 CLR
13:05 16.1 °C 7.6 °C 1021.9 hPa NW 44.4 km/h 44.4 km/h 57 % 0.0 mm 529.0 W/m2 CLR
13:10 16.7 °C 8.1 °C 1021.9 hPa NNW 38.9 km/h 38.9 km/h 57 % 0.0 mm 218.0 W/m2 CLR
13:15 16.1 °C 7.8 °C 1021.9 hPa NW 40.7 km/h 40.7 km/h 58 % 0.0 mm 281.0 W/m2 CLR
13:20 16.1 °C 7.8 °C 1021.9 hPa NNW 40.7 km/h 40.7 km/h 58 % 0.0 mm 455.0 W/m2 CLR
13:25 16.1 °C 7.6 °C 1021.9 hPa North 35.2 km/h 35.2 km/h 57 % 0.0 mm 439.0 W/m2 CLR
13:26 16.1 °C 7.6 °C 1021.9 hPa North 43.4 km/h 43.4 km/h 57 % 0.0 mm 520.0 W/m2 CLR
13:31 16.1 °C 7.6 °C 1021.9 hPa North 37.0 km/h 37.0 km/h 57 % 0.0 mm 213.0 W/m2 CLR
13:36 15.6 °C 7.3 °C 1021.9 hPa NNW 46.3 km/h 46.3 km/h 58 % 0.0 mm 220.0 W/m2 CLR
13:41 15.6 °C 7.3 °C 1022.2 hPa North 40.7 km/h 40.7 km/h 58 % 0.0 mm 218.0 W/m2 CLR
13:46 15.0 °C 7.1 °C 1021.9 hPa NW 33.8 km/h 33.8 km/h 59 % 0.0 mm 536.0 W/m2 CLR
13:51 15.6 °C 7.3 °C 1022.2 hPa NNW 29.6 km/h 29.6 km/h 58 % 0.0 mm 123.0 W/m2 CLR
13:56 15.0 °C 7.1 °C 1022.2 hPa North 40.7 km/h 40.7 km/h 59 % 0.0 mm 125.0 W/m2 CLR
14:01 14.4 °C 6.5 °C 1022.2 hPa NNW 32.2 km/h 32.2 km/h 59 % 0.0 mm 97.0 W/m2 CLR
14:06 14.4 °C 6.8 °C 1022.6 hPa NNW 25.9 km/h 25.9 km/h 60 % 0.0 mm 132.0 W/m2 CLR
14:11 14.4 °C 6.8 °C 1022.6 hPa North 46.3 km/h 46.3 km/h 60 % 0.0 mm 146.0 W/m2 CLR
14:16 14.4 °C 6.8 °C 1022.6 hPa WNW 40.7 km/h 40.7 km/h 60 % 0.0 mm 153.0 W/m2 CLR
14:21 14.4 °C 7.0 °C 1022.6 hPa NW 38.9 km/h 38.9 km/h 61 % 0.0 mm 167.0 W/m2 CLR
14:26 14.4 °C 6.8 °C 1022.6 hPa NW 37.0 km/h 37.0 km/h 60 % 0.0 mm 155.0 W/m2 CLR
14:32 14.4 °C 6.8 °C 1022.6 hPa NNW 42.6 km/h 42.6 km/h 60 % 0.0 mm 113.0 W/m2 CLR
14:37 14.4 °C 6.8 °C 1022.6 hPa NW 31.5 km/h 31.5 km/h 60 % 0.0 mm 104.0 W/m2 CLR
14:42 14.4 °C 7.0 °C 1022.9 hPa NNW 31.5 km/h 31.5 km/h 61 % 0.0 mm 109.0 W/m2 CLR
14:47 13.9 °C 6.7 °C 1022.6 hPa NNW 38.9 km/h 38.9 km/h 62 % 0.0 mm 118.0 W/m2 CLR
14:52 13.9 °C 6.5 °C 1022.9 hPa NNW 40.7 km/h 40.7 km/h 61 % 0.0 mm 118.0 W/m2 CLR
14:57 14.4 °C 7.0 °C 1022.9 hPa NW 33.3 km/h 33.3 km/h 61 % 0.0 mm 127.0 W/m2 CLR
15:02 14.4 °C 6.8 °C 1022.9 hPa NNW 35.4 km/h 35.4 km/h 60 % 0.0 mm 114.0 W/m2 CLR
15:07 14.4 °C 7.0 °C 1022.9 hPa NW 27.8 km/h 27.8 km/h 61 % 0.0 mm 127.0 W/m2 CLR
15:12 14.4 °C 6.8 °C 1022.9 hPa NNW 40.7 km/h 40.7 km/h 60 % 0.0 mm 146.0 W/m2 CLR
15:17 14.4 °C 6.8 °C 1022.9 hPa NNW 42.6 km/h 42.6 km/h 60 % 0.0 mm 139.0 W/m2 CLR
15:22 14.4 °C 6.8 °C 1022.9 hPa North 48.1 km/h 48.1 km/h 60 % 0.0 mm 149.0 W/m2 CLR
15:27 14.4 °C 7.0 °C 1023.2 hPa NNW 33.3 km/h 33.3 km/h 61 % 0.0 mm 165.0 W/m2 CLR
15:32 14.4 °C 7.0 °C 1023.2 hPa NNW 48.1 km/h 48.1 km/h 61 % 0.0 mm 172.0 W/m2 CLR
15:33 14.4 °C 7.0 °C 1023.2 hPa NNW 42.6 km/h 42.6 km/h 61 % 0.0 mm 172.0 W/m2 CLR
15:38 14.4 °C 7.0 °C 1023.2 hPa NNW 38.9 km/h 38.9 km/h 61 % 0.0 mm 132.0 W/m2 CLR
15:43 14.4 °C 7.0 °C 1023.2 hPa NNW 38.9 km/h 38.9 km/h 61 % 0.0 mm 125.0 W/m2 CLR
15:48 13.9 °C 6.5 °C 1023.2 hPa NNW 42.6 km/h 42.6 km/h 61 % 0.0 mm 113.0 W/m2 CLR
15:58 13.9 °C 6.5 °C 1023.2 hPa NW 31.5 km/h 31.5 km/h 61 % 0.0 mm 65.0 W/m2 FEW
16:03 13.9 °C 6.5 °C 1023.6 hPa North 31.5 km/h 31.5 km/h 61 % 0.0 mm 70.0 W/m2 FEW
16:08 13.9 °C 6.5 °C 1023.6 hPa NW 31.5 km/h 31.5 km/h 61 % 0.0 mm 77.0 W/m2 FEW
16:13 13.9 °C 6.2 °C 1023.9 hPa North 35.2 km/h 35.2 km/h 60 % 0.0 mm 77.0 W/m2 FEW
16:18 13.9 °C 6.2 °C 1023.9 hPa North 38.9 km/h 38.9 km/h 60 % 0.0 mm 72.0 W/m2 FEW
16:23 13.9 °C 6.2 °C 1023.9 hPa NNW 42.6 km/h 42.6 km/h 60 % 0.0 mm 63.0 W/m2 FEW
16:28 13.3 °C 5.5 °C 1023.9 hPa NNW 42.6 km/h 42.6 km/h 59 % 0.0 mm 56.0 W/m2 SCT
16:33 13.3 °C 5.5 °C 1023.6 hPa NNW 31.5 km/h 31.5 km/h 59 % 0.0 mm 51.0 W/m2 SCT
16:38 13.3 °C 5.5 °C 1023.6 hPa North 24.1 km/h 24.1 km/h 59 % 0.0 mm 46.0 W/m2 SCT
16:43 13.3 °C 5.2 °C 1023.9 hPa North 35.2 km/h 35.2 km/h 58 % 0.0 mm 42.0 W/m2 BKN
16:48 13.3 °C 5.2 °C 1023.9 hPa NNW 31.5 km/h 31.5 km/h 58 % 0.0 mm 32.0 W/m2 BKN
16:53 13.3 °C 5.2 °C 1023.9 hPa NNW 31.5 km/h 31.5 km/h 58 % 0.0 mm 40.0 W/m2 BKN
16:58 13.3 °C 5.0 °C 1024.3 hPa NNW 35.2 km/h 35.2 km/h 57 % 0.0 mm 39.0 W/m2 BKN
17:03 13.3 °C 5.0 °C 1024.3 hPa NW 31.5 km/h 31.5 km/h 57 % 0.0 mm 35.0 W/m2 BKN
17:08 12.8 °C 4.7 °C 1024.6 hPa North 22.2 km/h 22.2 km/h 58 % 0.0 mm 28.0 W/m2 BKN
17:13 12.8 °C 4.7 °C 1024.6 hPa NNW 37.0 km/h 37.0 km/h 58 % 0.0 mm 16.0 W/m2 BKN
17:18 12.8 °C 4.7 °C 1024.6 hPa NW 31.5 km/h 31.5 km/h 58 % 0.0 mm 9.0 W/m2 BKN
17:23 12.8 °C 4.7 °C 1024.6 hPa NNW 35.2 km/h 35.2 km/h 58 % 0.0 mm 5.0 W/m2 OVC
17:28 12.8 °C 4.4 °C 1024.6 hPa NNW 40.7 km/h 40.7 km/h 57 % 0.0 mm 0.0 W/m2 OVC
17:33 12.8 °C 4.2 °C 1024.6 hPa NNW 35.2 km/h 35.2 km/h 56 % 0.0 mm 0.0 W/m2 OVC
17:38 12.8 °C 4.2 °C 1024.6 hPa NNW 33.3 km/h 33.3 km/h 56 % 0.0 mm 0.0 W/m2 OVC
17:43 12.2 °C 3.4 °C 1024.6 hPa NNW 33.3 km/h 33.3 km/h 55 % 0.0 mm 0.0 W/m2 OVC
17:48 12.2 °C 3.7 °C 1024.6 hPa NNW 40.7 km/h 40.7 km/h 56 % 0.0 mm 0.0 W/m2 CLR
17:53 12.2 °C 3.7 °C 1024.9 hPa WNW 31.5 km/h 31.5 km/h 56 % 0.0 mm 0.0 W/m2 CLR
18:03 11.7 °C 3.2 °C 1024.9 hPa WNW 22.2 km/h 22.2 km/h 56 % 0.0 mm 0.0 W/m2 CLR
18:08 11.7 °C 3.2 °C 1024.9 hPa North 31.5 km/h 31.5 km/h 56 % 0.0 mm 0.0 W/m2 CLR
18:13 11.7 °C 3.4 °C 1025.3 hPa NW 35.2 km/h 35.2 km/h 57 % 0.0 mm 0.0 W/m2 CLR
18:18 11.7 °C 3.4 °C 1025.3 hPa NW 40.7 km/h 40.7 km/h 57 % 0.0 mm 0.0 W/m2 CLR
18:19 11.7 °C 3.4 °C 1025.3 hPa WNW 40.7 km/h 40.7 km/h 57 % 0.0 mm 0.0 W/m2 CLR
18:24 11.1 °C 3.2 °C 1025.3 hPa NW 30.6 km/h 30.6 km/h 58 % 0.0 mm 0.0 W/m2 CLR
18:29 11.1 °C 3.2 °C 1025.3 hPa NW 33.3 km/h 33.3 km/h 58 % 0.0 mm 0.0 W/m2 CLR
18:34 11.1 °C 3.4 °C 1025.6 hPa NNW 30.6 km/h 31.5 km/h 59 % 0.0 mm 0.0 W/m2 CLR
18:35 11.1 °C 3.4 °C 1025.3 hPa NW 42.6 km/h 42.6 km/h 59 % 0.0 mm 0.0 W/m2 CLR
18:40 11.1 °C 3.4 °C 1025.6 hPa NW 31.5 km/h 31.5 km/h 59 % 0.0 mm 0.0 W/m2 CLR
18:45 11.1 °C 3.4 °C 1025.6 hPa NNW 27.4 km/h 27.4 km/h 59 % 0.0 mm 0.0 W/m2 CLR
18:50 11.1 °C 3.4 °C 1025.6 hPa NNW 40.7 km/h 40.7 km/h 59 % 0.0 mm 0.0 W/m2 CLR
18:55 11.1 °C 3.4 °C 1025.6 hPa NW 38.6 km/h 38.6 km/h 59 % 0.0 mm 0.0 W/m2 CLR
19:00 11.1 °C 3.4 °C 1026.0 hPa NNW 46.3 km/h 46.3 km/h 59 % 0.0 mm 0.0 W/m2 CLR
19:05 10.6 °C 2.9 °C 1026.0 hPa NNW 44.4 km/h 44.4 km/h 59 % 0.0 mm 0.0 W/m2 CLR
19:10 10.6 °C 3.1 °C 1026.0 hPa NNW 38.9 km/h 38.9 km/h 60 % 0.0 mm 0.0 W/m2 CLR
19:15 10.6 °C 3.1 °C 1026.0 hPa NW 44.4 km/h 44.4 km/h 60 % 0.0 mm 0.0 W/m2 CLR
19:20 10.6 °C 3.1 °C 1026.3 hPa NNW 37.0 km/h 37.0 km/h 60 % 0.0 mm 0.0 W/m2 CLR
19:25 10.6 °C 3.1 °C 1026.3 hPa North 30.6 km/h 30.6 km/h 60 % 0.0 mm 0.0 W/m2 CLR
19:30 10.0 °C 2.6 °C 1026.3 hPa NW 42.6 km/h 42.6 km/h 60 % 0.0 mm 0.0 W/m2 CLR
19:35 10.0 °C 2.6 °C 1026.6 hPa NNW 31.5 km/h 31.5 km/h 60 % 0.0 mm 0.0 W/m2 CLR
19:40 10.0 °C 2.6 °C 1026.6 hPa NW 38.9 km/h 38.9 km/h 60 % 0.0 mm 0.0 W/m2 CLR
19:45 10.0 °C 2.6 °C 1026.6 hPa NW 33.8 km/h 33.8 km/h 60 % 0.0 mm 0.0 W/m2 CLR
19:50 10.0 °C 2.6 °C 1026.6 hPa NW 31.5 km/h 31.5 km/h 60 % 0.0 mm 0.0 W/m2 CLR
19:55 9.4 °C 2.1 °C 1026.6 hPa NW 30.6 km/h 30.6 km/h 60 % 0.0 mm 0.0 W/m2 CLR
20:00 9.4 °C 2.3 °C 1026.6 hPa NW 43.4 km/h 43.4 km/h 61 % 0.0 mm 0.0 W/m2 CLR
20:05 9.4 °C 2.3 °C 1026.6 hPa NW 37.0 km/h 37.0 km/h 61 % 0.0 mm 0.0 W/m2 CLR
20:10 9.4 °C 2.5 °C 1026.3 hPa NW 35.2 km/h 35.2 km/h 62 % 0.0 mm 0.0 W/m2 CLR
20:15 9.4 °C 2.5 °C 1026.3 hPa NW 42.6 km/h 42.6 km/h 62 % 0.0 mm 0.0 W/m2 CLR
20:20 9.4 °C 2.5 °C 1026.6 hPa NW 41.8 km/h 41.8 km/h 62 % 0.0 mm 0.0 W/m2 CLR
20:25 9.4 °C 2.7 °C 1026.6 hPa NW 37.0 km/h 37.0 km/h 63 % 0.0 mm 0.0 W/m2 CLR
20:30 8.9 °C 2.2 °C 1027.0 hPa NNW 40.7 km/h 40.7 km/h 63 % 0.0 mm 0.0 W/m2 CLR
20:35 8.9 °C 2.2 °C 1027.0 hPa NW 32.2 km/h 32.2 km/h 63 % 0.0 mm 0.0 W/m2 CLR
20:40 8.9 °C 2.2 °C 1027.0 hPa NNW 38.9 km/h 38.9 km/h 63 % 0.0 mm 0.0 W/m2 CLR
20:45 8.9 °C 2.4 °C 1027.0 hPa NW 35.2 km/h 35.2 km/h 64 % 0.0 mm 0.0 W/m2 CLR
20:50 8.9 °C 2.2 °C 1027.0 hPa NW 31.5 km/h 31.5 km/h 63 % 0.0 mm 0.0 W/m2 CLR
20:51 8.9 °C 2.2 °C 1027.0 hPa NW 31.5 km/h 31.5 km/h 63 % 0.0 mm 0.0 W/m2 CLR
20:56 8.9 °C 2.2 °C 1027.3 hPa North 31.5 km/h 31.5 km/h 63 % 0.0 mm 0.0 W/m2 CLR
21:01 8.9 °C 2.0 °C 1027.0 hPa NW 25.9 km/h 25.9 km/h 62 % 0.0 mm 0.0 W/m2 CLR
21:06 8.9 °C 2.0 °C 1027.0 hPa NW 35.2 km/h 35.2 km/h 62 % 0.0 mm 0.0 W/m2 CLR
21:11 8.9 °C 2.0 °C 1027.0 hPa NNW 27.8 km/h 27.8 km/h 62 % 0.0 mm 0.0 W/m2 CLR
21:16 8.9 °C 2.0 °C 1027.3 hPa WNW 37.0 km/h 37.0 km/h 62 % 0.0 mm 0.0 W/m2 CLR
21:21 8.3 °C 1.4 °C 1027.3 hPa NW 33.8 km/h 33.8 km/h 62 % 0.0 mm 0.0 W/m2 CLR
21:26 8.3 °C 1.4 °C 1027.3 hPa NW 37.0 km/h 37.0 km/h 62 % 0.0 mm 0.0 W/m2 CLR
21:31 8.3 °C 1.4 °C 1027.3 hPa NNW 37.0 km/h 37.0 km/h 62 % 0.0 mm 0.0 W/m2 CLR
21:36 8.3 °C 1.4 °C 1027.3 hPa NNW 33.3 km/h 33.3 km/h 62 % 0.0 mm 0.0 W/m2 CLR
21:41 8.3 °C 1.4 °C 1027.3 hPa WNW 37.0 km/h 37.0 km/h 62 % 0.0 mm 0.0 W/m2 CLR
21:46 8.3 °C 1.4 °C 1027.3 hPa NW 31.5 km/h 31.5 km/h 62 % 0.0 mm 0.0 W/m2 CLR
21:51 8.3 °C 1.4 °C 1027.3 hPa NW 33.3 km/h 33.3 km/h 62 % 0.0 mm 0.0 W/m2 CLR
21:56 8.3 °C 1.4 °C 1027.7 hPa NW 33.3 km/h 33.3 km/h 62 % 0.0 mm 0.0 W/m2 CLR
22:01 8.3 °C 1.2 °C 1027.7 hPa NNW 29.6 km/h 29.6 km/h 61 % 0.0 mm 0.0 W/m2 CLR
22:06 8.3 °C 1.2 °C 1027.7 hPa NW 31.5 km/h 31.5 km/h 61 % 0.0 mm 0.0 W/m2 CLR
22:11 8.3 °C 1.2 °C 1027.7 hPa NW 27.8 km/h 27.8 km/h 61 % 0.0 mm 0.0 W/m2 CLR
22:16 8.3 °C 1.2 °C 1027.7 hPa NW 29.6 km/h 29.6 km/h 61 % 0.0 mm 0.0 W/m2 CLR
22:21 8.3 °C 1.2 °C 1027.7 hPa NW 31.5 km/h 31.5 km/h 61 % 0.0 mm 0.0 W/m2 CLR
22:26 8.3 °C 1.2 °C 1027.7 hPa NW 31.5 km/h 31.5 km/h 61 % 0.0 mm 0.0 W/m2 CLR
22:31 7.8 °C 0.5 °C 1027.7 hPa NW 25.9 km/h 25.9 km/h 60 % 0.0 mm 0.0 W/m2 CLR
22:36 7.8 °C 0.5 °C 1027.7 hPa NW 20.4 km/h 20.4 km/h 60 % 0.0 mm 0.0 W/m2 CLR
22:41 7.8 °C 0.3 °C 1027.7 hPa NW 33.3 km/h 33.3 km/h 59 % 0.0 mm 0.0 W/m2 CLR
22:46 8.3 °C 0.6 °C 1027.7 hPa NNW 29.6 km/h 29.6 km/h 58 % 0.0 mm 0.0 W/m2 CLR
22:47 8.3 °C 0.6 °C 1027.7 hPa NW 27.8 km/h 27.8 km/h 58 % 0.0 mm 0.0 W/m2 CLR
22:52 8.3 °C 0.6 °C 1027.7 hPa WNW 25.9 km/h 25.9 km/h 58 % 0.0 mm 0.0 W/m2 CLR
22:57 8.3 °C 0.6 °C 1027.7 hPa NW 33.3 km/h 33.3 km/h 58 % 0.0 mm 0.0 W/m2 CLR
23:02 8.3 °C 0.6 °C 1027.7 hPa NW 33.3 km/h 33.3 km/h 58 % 0.0 mm 0.0 W/m2 CLR
23:07 7.8 °C 0.0 °C 1027.7 hPa NW 24.1 km/h 24.1 km/h 58 % 0.0 mm 0.0 W/m2 CLR
23:12 7.8 °C 0.3 °C 1028.0 hPa NW 35.2 km/h 35.2 km/h 59 % 0.0 mm 0.0 W/m2 CLR
23:17 7.8 °C 0.3 °C 1028.0 hPa North 31.5 km/h 31.5 km/h 59 % 0.0 mm 0.0 W/m2 CLR
23:22 7.8 °C 0.3 °C 1028.0 hPa NNW 29.0 km/h 29.0 km/h 59 % 0.0 mm 0.0 W/m2 CLR
23:27 7.8 °C 0.5 °C 1028.0 hPa NW 25.9 km/h 25.9 km/h 60 % 0.0 mm 0.0 W/m2 CLR
23:32 7.8 °C 0.3 °C 1028.0 hPa NW 33.3 km/h 33.3 km/h 59 % 0.0 mm 0.0 W/m2 CLR
23:37 7.8 °C 0.5 °C 1027.7 hPa NW 25.7 km/h 25.7 km/h 60 % 0.0 mm 0.0 W/m2 CLR
23:42 7.8 °C 0.5 °C 1028.0 hPa NW 31.5 km/h 31.5 km/h 60 % 0.0 mm 0.0 W/m2 CLR
23:47 7.8 °C 0.5 °C 1028.0 hPa WNW 25.9 km/h 25.9 km/h 60 % 0.0 mm 0.0 W/m2 CLR
23:52 7.8 °C 0.3 °C 1028.0 hPa NW 31.5 km/h 31.5 km/h 59 % 0.0 mm 0.0 W/m2 CLR
23:57 7.8 °C 0.3 °C 1028.0 hPa NW 31.5 km/h 31.5 km/h 59 % 0.0 mm 0.0 W/m2 CLR
Lo Temps de Massalio
Compliments of Weather Underground - 1.25 mb